User: anonymous   Login
Location: Unspecified
(0.0000°N, 0.0000°E)
Time: 04:50:37
(UTC+02:00)
Language:

SJ-6B - Orbit

View from above orbital plane
View from above orbital plane
View from above satellite
View from above satellite

Ground track
Ground track

The orbit data is extracted from the following two-line orbital elements,

1 28415U 04035C   15186.51404670  .00002877  00000-0  20231-3 0  9995
2 28415 097.7946 199.0332 0054688 017.9212 342.3925 15.04715517591340
Epoch (UTC): 05 July 2015 12:20:13
Eccentricity: 0.0054688
inclination: 97.7946°
perigee height: 514 km
apogee height: 590 km
right ascension of ascending node: 199.0332°
argument of perigee: 17.9212°
revolutions per day: 15.04715517
mean anomaly at epoch: 342.3925°
orbit number at epoch: 59134

The dashed part of the orbit path shows where the satellite is in the earth's shadow,  

DLR